TimeCST,TemperatureF,Dew PointF,Humidity,Sea Level PressureIn,VisibilityMPH,Wind Direction,Wind SpeedMPH,Gust SpeedMPH,PrecipitationIn,Events,Conditions,WindDirDegrees,DateUTC
12:15 AM,48.4,34.7,59,30.00,10.0,WNW,6.9,-,N/A,,Mostly Cloudy,300,2012-11-07 06:15:00
12:35 AM,47.8,34.7,60,30.00,10.0,WNW,5.8,-,N/A,,Mostly Cloudy,300,2012-11-07 06:35:00
12:55 AM,47.1,34.5,62,30.00,10.0,WNW,8.1,-,N/A,,Scattered Clouds,300,2012-11-07 06:55:00
1:15 AM,46.2,34.3,63,30.00,10.0,WNW,6.9,-,N/A,,Mostly Cloudy,300,2012-11-07 07:15:00
1:35 AM,46.2,34.7,64,30.00,10.0,WNW,9.2,-,N/A,,Overcast,300,2012-11-07 07:35:00
1:55 AM,46.2,34.3,63,30.01,10.0,WNW,8.1,-,N/A,,Overcast,300,2012-11-07 07:55:00
2:15 AM,45.7,34.5,65,30.01,10.0,WNW,6.9,-,N/A,,Overcast,300,2012-11-07 08:15:00
2:35 AM,45.5,34.5,65,30.01,10.0,WNW,6.9,-,N/A,,Overcast,300,2012-11-07 08:35:00
2:55 AM,45.5,34.3,65,30.01,10.0,WNW,5.8,-,N/A,,Overcast,290,2012-11-07 08:55:00
3:15 AM,45.3,34.3,65,30.00,10.0,West,4.6,-,N/A,,Overcast,280,2012-11-07 09:15:00
3:35 AM,45.1,34.3,66,30.00,10.0,WNW,5.8,-,N/A,,Overcast,290,2012-11-07 09:35:00
3:55 AM,45.1,34.3,66,30.00,10.0,WNW,8.1,-,N/A,,Overcast,300,2012-11-07 09:55:00
4:15 AM,45.1,34.0,65,30.01,10.0,WNW,6.9,16.1,N/A,,Overcast,290,2012-11-07 10:15:00
4:35 AM,44.6,34.0,66,30.02,10.0,WNW,8.1,-,N/A,,Overcast,290,2012-11-07 10:35:00
4:55 AM,44.1,33.8,67,30.02,10.0,WNW,8.1,-,N/A,,Overcast,300,2012-11-07 10:55:00
5:15 AM,43.3,33.8,69,30.03,10.0,West,6.9,-,N/A,,Overcast,280,2012-11-07 11:15:00
5:35 AM,43.2,33.8,70,30.03,10.0,West,4.6,-,N/A,,Overcast,280,2012-11-07 11:35:00
6:15 AM,41.5,33.8,74,30.04,10.0,WNW,6.9,-,N/A,,Scattered Clouds,300,2012-11-07 12:15:00
6:35 AM,41.0,33.4,74,30.05,10.0,WNW,6.9,-,N/A,,Scattered Clouds,300,2012-11-07 12:35:00
7:15 AM,40.3,33.1,75,30.08,10.0,WNW,6.9,-,N/A,,Mostly Cloudy,290,2012-11-07 13:15:00
7:55 AM,41.2,33.8,75,30.10,10.0,WNW,6.9,-,N/A,,Overcast,300,2012-11-07 13:55:00
8:15 AM,41.7,34.2,75,30.11,10.0,NW,8.1,-,N/A,,Overcast,320,2012-11-07 14:15:00
8:35 AM,43.3,34.7,72,30.12,10.0,NW,8.1,-,N/A,,Mostly Cloudy,320,2012-11-07 14:35:00
8:55 AM,44.6,35.2,70,30.12,10.0,NW,9.2,-,N/A,,Scattered Clouds,320,2012-11-07 14:55:00
9:15 AM,45.9,35.4,67,30.13,10.0,NNW,10.4,17.3,N/A,,Scattered Clouds,340,2012-11-07 15:15:00
9:55 AM,45.0,34.3,66,30.14,10.0,North,11.5,-,N/A,,Mostly Cloudy,360,2012-11-07 15:55:00
10:15 AM,47.1,34.7,62,30.14,10.0,North,13.8,18.4,N/A,,Mostly Cloudy,10,2012-11-07 16:15:00
10:35 AM,47.8,33.8,58,30.15,10.0,North,12.7,17.3,N/A,,Mostly Cloudy,360,2012-11-07 16:35:00
10:55 AM,48.2,33.8,58,30.15,10.0,NW,9.2,-,N/A,,Scattered Clouds,310,2012-11-07 16:55:00
11:15 AM,47.5,33.6,59,30.15,10.0,NW,8.1,-,N/A,,Mostly Cloudy,320,2012-11-07 17:15:00
11:35 AM,47.8,34.0,59,30.15,10.0,NNW,8.1,-,N/A,,Overcast,330,2012-11-07 17:35:00
11:55 AM,48.0,33.4,57,30.14,10.0,North,8.1,-,N/A,,Overcast,350,2012-11-07 17:55:00
12:15 PM,47.8,33.8,58,30.14,10.0,NW,5.8,-,N/A,,Overcast,320,2012-11-07 18:15:00
12:35 PM,48.2,34.2,58,30.13,10.0,North,5.8,-,N/A,,Overcast,10,2012-11-07 18:35:00
12:55 PM,48.4,34.0,58,30.13,10.0,North,3.5,-,N/A,,Overcast,350,2012-11-07 18:55:00
1:15 PM,48.4,33.6,57,30.13,10.0,NW,3.5,-,N/A,,Overcast,310,2012-11-07 19:15:00
1:35 PM,49.3,33.8,55,30.12,10.0,North,4.6,-,N/A,,Overcast,360,2012-11-07 19:35:00
1:55 PM,49.1,34.0,56,30.12,10.0,NNE,4.6,-,N/A,,Mostly Cloudy,20,2012-11-07 19:55:00
2:15 PM,51.1,34.5,53,30.12,10.0,North,3.5,-,N/A,,Mostly Cloudy,10,2012-11-07 20:15:00
2:35 PM,50.7,33.3,51,30.12,10.0,NE,3.5,-,N/A,,Mostly Cloudy,50,2012-11-07 20:35:00
2:55 PM,49.1,33.8,56,30.12,10.0,NNE,3.5,-,N/A,,Mostly Cloudy,30,2012-11-07 20:55:00
3:15 PM,48.0,33.3,57,30.13,10.0,Calm,Calm,-,N/A,,Clear,0,2012-11-07 21:15:00
3:35 PM,49.3,32.7,53,30.12,10.0,Calm,Calm,-,N/A,,Scattered Clouds,0,2012-11-07 21:35:00
3:55 PM,49.8,33.6,54,30.13,10.0,NNE,4.6,-,N/A,,Mostly Cloudy,30,2012-11-07 21:55:00
4:15 PM,48.9,34.0,56,30.13,10.0,NE,4.6,-,N/A,,Clear,50,2012-11-07 22:15:00
4:35 PM,48.0,33.8,58,30.13,10.0,NE,3.5,-,N/A,,Clear,40,2012-11-07 22:35:00
4:55 PM,47.3,33.4,59,30.13,10.0,East,4.6,-,N/A,,Clear,80,2012-11-07 22:55:00
5:15 PM,45.7,32.7,61,30.13,10.0,East,4.6,-,N/A,,Clear,100,2012-11-07 23:15:00
5:35 PM,44.6,32.5,63,30.13,10.0,East,5.8,-,N/A,,Clear,100,2012-11-07 23:35:00
5:55 PM,44.2,32.4,63,30.13,10.0,East,5.8,-,N/A,,Clear,90,2012-11-07 23:55:00
6:15 PM,43.2,32.2,65,30.14,10.0,East,6.9,-,N/A,,Clear,100,2012-11-08 00:15:00
6:35 PM,41.5,32.2,69,30.14,10.0,East,6.9,-,N/A,,Clear,100,2012-11-08 00:35:00
6:55 PM,40.5,32.2,72,30.14,10.0,East,6.9,-,N/A,,Clear,100,2012-11-08 00:55:00
7:15 PM,39.7,32.2,74,30.14,5.0,East,5.8,-,N/A,,Haze,90,2012-11-08 01:15:00
7:35 PM,39.4,32.2,75,30.14,10.0,ESE,6.9,-,N/A,,Clear,110,2012-11-08 01:35:00
7:55 PM,38.8,32.2,77,30.14,10.0,ESE,8.1,-,N/A,,Clear,110,2012-11-08 01:55:00
8:15 PM,38.5,32.2,78,30.15,10.0,SE,4.6,-,N/A,,Clear,130,2012-11-08 02:15:00
8:55 PM,37.4,32.0,81,30.15,10.0,ESE,5.8,-,N/A,,Clear,120,2012-11-08 02:55:00
9:15 PM,37.4,32.0,81,30.16,10.0,SE,4.6,-,N/A,,Clear,130,2012-11-08 03:15:00
9:35 PM,36.9,32.0,83,30.16,10.0,ESE,6.9,-,N/A,,Clear,120,2012-11-08 03:35:00
9:55 PM,36.9,31.8,82,30.16,10.0,SE,5.8,-,N/A,,Clear,140,2012-11-08 03:55:00
10:15 PM,36.1,31.8,84,30.15,10.0,SE,5.8,-,N/A,,Clear,140,2012-11-08 04:15:00
10:35 PM,36.0,32.0,86,30.15,10.0,SE,5.8,-,N/A,,Clear,140,2012-11-08 04:35:00
10:55 PM,36.0,32.0,86,30.15,10.0,SE,4.6,-,N/A,,Clear,130,2012-11-08 04:55:00
11:15 PM,36.1,31.8,84,30.16,10.0,SE,4.6,-,N/A,,Clear,140,2012-11-08 05:15:00
11:55 PM,35.2,31.5,86,30.16,10.0,SE,5.8,-,N/A,,Clear,140,2012-11-08 05:55:00